Tracking 19817 objects as of 17-Aug-2019
HD Live streaming from Space Station
objects crossing your sky now

CZ-2D DEB

Track CZ-2D DEB now!
10-day predictions


NORAD ID: 43413
Int'l Code: 2013-068B
Perigee: 676.0 km
Apogee: 862.7 km
Inclination: 98.0 °
Period: 100.1 minutes
Semi major axis: 7140 km
RCS: Unknown
Launch date: November 25, 2013
Source: People's Republic of China (PRC)
Launch site: Jiuquan Satellite Launch Center, China (JSC)

Note: This is SATELLITE DEBRIS
aabbcc
Your satellite tracking list
Your tracking list is empty




NASA's NSSDC Master Catalog

Two Line Element Set (TLE):
1 43413U 13068B   19228.72055411  .00000176  00000-0  64276-4 0  9993
2 43413  97.9797 139.3065 0130754  20.7103 339.9316 14.38888103292129
Source of the keplerian elements: AFSPC